Content
SEND FEEDBACK

Daily
Averages
Monthly
Summary
United States of America

CHATSWORTH, NEW JERSEY


Home > North America > United States > New Jersey
Elevation: 90 feet     Latitude: 39 44N     Longitude: 074 32W

WEATHER
 
SELECT A DAY
Number of Records: 174,230;   Date Range: 11/5/97 - 8/12/14
 
SHARE

PRINT THIS DATA

[ ← Previous Day ]
WEATHER ALMANAC - JANUARY 3, 2013
[ Next Day → ]
[ °C ]   °F
Weather ElementAverageHighLow
Temperature28.9 °F34 °F (2:54 pm)21 °F (7:54 am)
Dewpoint15 °F19.9 °F (11:54 pm)10.9 °F (1:54 pm)
Humidity57 %78 % (7:54 am)40 % (1:54 pm)
Barometer30.17 in30.22 in (8:54 am)30.12 in (2:54 pm)
Wind Speed4.8 mph10.4 mph (1:54 pm)
Weather ElementAverage
Visibility10 mi
Wind DirectionSSW (202.2 °)

Weather ElementTotal
Precipitation---
Heating Degree Days37.5 (Base 65)
Averaged from 23 records on January 3, 2013
WEATHER CONDITIONS BREAKOUT
WIND DIRECTION BREAKOUT
WEATHER BY HOUR - JANUARY 3, 2013
[ °C ]   °F
Local TimeTemperatureDewpointHumidityBarometerVisibilityWind DirectionWind SpeedGust SpeedPrecipitationEventsConditions
1:54 AM28.0 °F14.0 °F56 %30.21 in10.0 miWNW (300°)4.6 mphClear
2:54 AM27.0 °F15.1 °F61 %30.21 in10.0 miNNW (330°)5.8 mphClear
3:54 AM27.0 °F14.0 °F58 %30.21 in10.0 miCalmClear
4:54 AM26.1 °F14.0 °F60 %30.21 in10.0 miCalmClear
5:54 AM25.0 °F14.0 °F63 %30.20 in10.0 miCalmClear
6:54 AM21.9 °F14.0 °F72 %30.21 in10.0 miCalmClear
7:54 AM21.0 °F15.1 °F78 %30.21 in10.0 miCalmClear
8:54 AM27.0 °F15.1 °F61 %30.22 in10.0 miWest (280°)3.5 mphClear
9:54 AM28.9 °F14.0 °F54 %30.22 in10.0 miWNW (290°)4.6 mphClear
10:54 AM30.0 °F14.0 °F51 %30.21 in10.0 miWest (260°)6.9 mphClear
11:54 AM32.0 °F14.0 °F48 %30.17 in10.0 miWest (270°)9.2 mphClear
12:54 PM32.0 °F12.9 °F45 %30.15 in10.0 miWest (260°)6.9 mphClear
1:54 PM33.1 °F10.9 °F40 %30.13 in10.0 miWest (260°)10.4 mphClear
2:54 PM34.0 °F12.0 °F40 %30.12 in10.0 miWest (280°)8.1 mphClear
3:54 PM34.0 °F12.0 °F40 %30.12 in10.0 miWSW (250°)8.1 mphClear
4:54 PM33.1 °F14.0 °F46 %30.14 in10.0 miWSW (250°)8.1 mphClear
5:54 PM30.9 °F16.0 °F54 %30.14 in10.0 miWSW (240°)3.5 mphClear
6:54 PM30.0 °F16.0 °F56 %30.15 in10.0 miWSW (250°)3.5 mphClear
7:54 PM28.0 °F17.1 °F63 %30.15 in10.0 miSW (220°)3.5 mphClear
8:54 PM28.9 °F18.0 °F64 %30.14 in10.0 miSW (220°)4.6 mphClear
9:54 PM28.9 °F19.0 °F67 %30.14 in10.0 miSW (230°)5.8 mphClear
10:54 PM28.9 °F19.0 °F67 %30.15 in10.0 miSW (230°)6.9 mphClear
11:54 PM30.0 °F19.9 °F66 %30.14 in10.0 miSW (230°)5.8 mphMostly Cloudy
Hourly data recorded from KVAY, located miles away from Chatsworth, New Jersey







STORIES FROM OUR PARTNERS